OK,45,56,877,45,2014-10-01T01:40:00,0,28072647,188119
OK,45,56,877,45,2014-10-01T01:45:00,0,28073094,188119
OK,45,56,877,45,2014-10-01T01:50:00,0,28073542,188119
OK,45,56,877,45,2014-10-01T01:55:00,0,28073860,188119
OK,45,56,877,45,2014-10-01T02:00:00,0,28074309,188119
OK,54,46,877,54,2014-10-01T02:05:00,2,28074750,188119
OK,54,46,877,54,2014-10-01T02:10:00,3,28075198,188119
OK,53,47,877,53,2014-10-01T02:20:00,0,28075647,188119
OK,53,47,877,53,2014-10-01T02:25:00,0,28076479,188119
OK,53,47,877,53,2014-10-01T02:30:00,0,28076928,188119
OK,55,46,877,55,2014-10-01T02:40:00,0,28077377,188119
OK,53,47,877,53,2014-10-01T02:50:00,1,28078229,188119
OK,53,47,877,53,2014-10-01T02:55:00,1,28078674,188119
OK,53,47,877,53,2014-10-01T03:00:00,0,28079123,188119
OK,53,47,877,53,2014-10-01T03:05:00,0,28079565,188119
OK,53,47,877,53,2014-10-01T03:10:00,0,28080014,188119
OK,86,29,877,86,2014-10-01T03:20:00,1,28080797,188119
OK,46,55,877,46,2014-10-01T03:25:00,1,28081246,188119
OK,46,55,877,46,2014-10-01T03:30:00,1,28081693,188119
OK,46,55,877,46,2014-10-01T03:35:00,0,28082142,188119
OK,38,66,877,38,2014-10-01T03:40:00,1,28083007,188119
OK,46,55,877,46,2014-10-01T03:50:00,1,28083456,188119
OK,96,26,877,96,2014-10-01T03:55:00,1,28083905,188119
OK,96,26,877,96,2014-10-01T04:00:00,1,28084347,188119
OK,96,26,877,96,2014-10-01T04:10:00,0,28085220,188119
OK,96,26,877,96,2014-10-01T04:15:00,0,28085665,188119
OK,51,49,877,51,2014-10-01T04:20:00,1,28086114,188119
OK,51,49,877,51,2014-10-01T04:25:00,0,28086556,188119
OK,83,30,877,83,2014-10-01T04:30:00,2,28087005,188119
OK,83,30,877,83,2014-10-01T04:35:00,2,28087450,188119
OK,107,23,877,107,2014-10-01T04:40:00,0,28087899,188119
OK,62,40,877,62,2014-10-01T04:50:00,2,28088772,188119
OK,57,44,877,57,2014-10-01T05:00:00,1,28089651,188119
OK,55,46,877,55,2014-10-01T05:05:00,1,28090100,188119
OK,78,32,877,78,2014-10-01T05:15:00,0,28090893,188119
OK,167,15,877,167,2014-10-01T05:20:00,1,28091342,188119
OK,91,27,877,91,2014-10-01T05:30:00,2,28092208,188119
OK,85,29,877,85,2014-10-01T05:35:00,0,28093093,188119
OK,51,49,877,51,2014-10-01T05:40:00,3,28093524,188119
OK,151,16,877,151,2014-10-01T05:50:00,1,28093973,188119
OK,100,25,877,100,2014-10-01T05:55:00,1,28094829,188119
OK,120,21,877,120,2014-10-01T06:00:00,2,28095276,188119
OK,53,47,877,53,2014-10-01T06:10:00,1,28095725,188119
OK,61,41,877,61,2014-10-01T06:20:00,4,28096587,188119
OK,61,41,877,61,2014-10-01T06:25:00,4,28097470,188119
OK,63,40,877,63,2014-10-01T06:35:00,3,28097919,188119
OK,66,38,877,66,2014-10-01T06:40:00,4,28098358,188119
OK,65,38,877,65,2014-10-01T06:45:00,4,28098800,188119
OK,59,42,877,59,2014-10-01T06:50:00,4,28099248,188119
OK,58,43,877,58,2014-10-01T07:00:00,2,28100040,188119
OK,51,49,877,51,2014-10-01T07:05:00,1,28100796,188119
OK,51,49,877,51,2014-10-01T07:10:00,1,28101167,188119
OK,51,49,877,51,2014-10-01T07:20:00,0,28101616,188119
OK,58,43,877,58,2014-10-01T07:30:00,3,28102501,188119
OK,58,43,877,58,2014-10-01T07:35:00,5,28102932,188119
OK,57,44,877,57,2014-10-01T07:40:00,2,28103375,188119
OK,54,46,877,54,2014-10-01T07:45:00,0,28103820,188119
OK,61,41,877,61,2014-10-01T07:50:00,1,28104265,188119
OK,63,40,877,63,2014-10-01T07:55:00,2,28104707,188119
OK,63,40,877,63,2014-10-01T08:00:00,4,28105151,188119
OK,45,56,877,45,2014-10-01T08:10:00,2,28106040,188119
OK,41,61,877,41,2014-10-01T08:15:00,1,28106477,188119
OK,41,61,877,41,2014-10-01T08:20:00,0,28107315,188119
OK,69,36,877,69,2014-10-01T08:25:00,1,28107764,188119
OK,64,39,877,64,2014-10-01T08:30:00,2,28108203,188119
OK,57,44,877,57,2014-10-01T08:40:00,3,28108652,188119
OK,59,42,877,59,2014-10-01T08:45:00,0,28109529,188119
OK,59,42,877,59,2014-10-01T08:50:00,0,28109872,188119
OK,55,46,877,55,2014-10-01T08:55:00,1,28110321,188119
OK,55,46,877,55,2014-10-01T09:00:00,3,28110744,188119
OK,51,49,877,51,2014-10-01T09:05:00,2,28111193,188119
OK,59,42,877,59,2014-10-01T09:10:00,2,28111622,188119
OK,59,42,877,59,2014-10-01T09:15:00,2,28112071,188119
OK,58,43,877,58,2014-10-01T09:20:00,0,28112412,188119
OK,58,43,877,58,2014-10-01T09:25:00,0,28112861,188119
OK,55,46,877,55,2014-10-01T09:30:00,3,28113285,188119
OK,60,42,877,60,2014-10-01T09:35:00,2,28113734,188119
OK,63,40,877,63,2014-10-01T09:40:00,2,28114166,188119
OK,63,40,877,63,2014-10-01T09:45:00,2,28114615,188119
OK,61,41,877,61,2014-10-01T09:50:00,1,28114969,188119
OK,45,56,877,45,2014-10-01T10:00:00,1,28115418,188119
OK,53,47,877,53,2014-10-01T10:10:00,2,28116279,188119
OK,68,37,877,68,2014-10-01T10:15:00,2,28117136,188119
OK,68,37,877,68,2014-10-01T10:20:00,2,28117561,188119
OK,58,43,877,58,2014-10-01T10:25:00,1,28118010,188119
OK,55,46,877,55,2014-10-01T10:30:00,2,28118455,188119
OK,53,47,877,53,2014-10-01T10:35:00,3,28118902,188119
OK,58,43,877,58,2014-10-01T10:40:00,2,28119346,188119
OK,65,38,877,65,2014-10-01T10:45:00,0,28119794,188119
OK,75,33,877,75,2014-10-01T10:50:00,1,28120242,188119
OK,75,33,877,75,2014-10-01T10:55:00,1,28120691,188119
OK,61,41,877,61,2014-10-01T11:00:00,1,28121074,188119
OK,126,20,877,126,2014-10-01T11:05:00,2,28121523,188119
OK,53,47,877,53,2014-10-01T11:10:00,3,28121961,188119
OK,56,45,877,56,2014-10-01T11:15:00,2,28122410,188119
OK,51,49,877,51,2014-10-01T11:20:00,2,28122851,188119
OK,46,55,877,46,2014-10-01T11:25:00,3,28123300,188119
OK,55,46,877,55,2014-10-01T11:30:00,0,28123732,188119
OK,68,37,877,68,2014-10-01T11:40:00,2,28124181,188119
OK,62,40,877,62,2014-10-01T11:45:00,1,28125032,188119
OK,64,39,877,64,2014-10-01T11:50:00,4,28125461,188119
OK,67,37,877,67,2014-10-01T11:55:00,3,28125910,188119
OK,69,36,877,69,2014-10-01T12:00:00,2,28126262,188119
OK,64,39,877,64,2014-10-01T12:05:00,3,28126711,188119
OK,61,41,877,61,2014-10-01T12:10:00,2,28127160,188119
OK,72,35,877,72,2014-10-01T12:15:00,3,28127609,188119
OK,72,35,877,72,2014-10-01T12:20:00,3,28128037,188119
OK,112,22,877,112,2014-10-01T12:25:00,3,28128486,188119
OK,89,28,877,89,2014-10-01T12:30:00,0,28128921,188119
OK,92,27,877,92,2014-10-01T12:35:00,3,28129370,188119
OK,95,26,877,95,2014-10-01T12:40:00,2,28129804,188119
OK,97,26,877,97,2014-10-01T12:45:00,3,28130253,188119
OK,101,25,877,101,2014-10-01T12:50:00,4,28130681,188119
OK,100,25,877,100,2014-10-01T12:55:00,1,28131130,188119
OK,66,38,877,66,2014-10-01T13:00:00,2,28131567,188119
OK,83,30,877,83,2014-10-01T13:05:00,4,28132016,188119
OK,92,27,877,92,2014-10-01T13:10:00,4,28132454,188119
OK,135,18,877,135,2014-10-01T13:15:00,4,28132901,188119
OK,177,14,877,177,2014-10-01T13:20:00,3,28133339,188119
OK,67,37,877,67,2014-10-01T13:25:00,1,28133788,188119
OK,100,25,877,100,2014-10-01T13:30:00,3,28134227,188119
OK,100,25,877,100,2014-10-01T13:35:00,5,28134676,188119
OK,73,34,877,73,2014-10-01T13:40:00,3,28135095,188119
OK,89,28,877,89,2014-10-01T13:45:00,3,28135544,188119
OK,117,21,877,117,2014-10-01T13:50:00,4,28135981,188119
OK,157,16,877,157,2014-10-01T13:55:00,4,28136430,188119
OK,119,21,877,119,2014-10-01T14:00:00,2,28136870,188119
OK,119,21,877,119,2014-10-01T14:05:00,2,28137319,188119
OK,84,30,877,84,2014-10-01T14:10:00,2,28137753,188119
OK,99,25,877,99,2014-10-01T14:15:00,6,28138202,188119
OK,155,16,877,155,2014-10-01T14:20:00,9,28138630,188119
OK,181,13,877,181,2014-10-01T14:25:00,3,28139079,188119
OK,58,43,877,58,2014-10-01T14:30:00,3,28139490,188119
OK,69,36,877,69,2014-10-01T14:35:00,4,28139939,188119
OK,82,30,877,82,2014-10-01T14:40:00,2,28140381,188119
OK,84,30,877,84,2014-10-01T14:45:00,1,28140830,188119
OK,84,30,877,84,2014-10-01T14:50:00,0,28141256,188119
OK,83,30,877,83,2014-10-01T14:55:00,4,28141705,188119
OK,77,32,877,77,2014-10-01T15:00:00,5,28142133,188119
OK,77,32,877,77,2014-10-01T15:05:00,3,28142582,188119
OK,107,23,877,107,2014-10-01T15:10:00,2,28143009,188119
OK,146,17,877,146,2014-10-01T15:15:00,1,28143458,188119
OK,59,42,877,59,2014-10-01T15:20:00,1,28143906,188119
OK,59,42,877,59,2014-10-01T15:25:00,1,28144355,188119
OK,59,42,877,59,2014-10-01T15:30:00,0,28144777,188119
OK,48,52,877,48,2014-10-01T15:35:00,2,28145190,188119
OK,49,51,877,49,2014-10-01T15:40:00,1,28145639,188119
OK,49,51,877,49,2014-10-01T15:45:00,0,28146088,188119
OK,67,37,877,67,2014-10-01T15:55:00,3,28146537,188119
OK,60,42,877,60,2014-10-01T16:00:00,2,28147389,188119
OK,51,49,877,51,2014-10-01T16:05:00,3,28147838,188119
OK,58,43,877,58,2014-10-01T16:10:00,3,28148239,188119
OK,70,36,877,70,2014-10-01T16:15:00,2,28148688,188119
OK,65,38,877,65,2014-10-01T16:20:00,2,28149127,188119
OK,51,49,877,51,2014-10-01T16:25:00,2,28149576,188119
OK,54,46,877,54,2014-10-01T16:30:00,1,28150002,188119
OK,58,43,877,58,2014-10-01T16:35:00,1,28150451,188119
OK,56,45,877,56,2014-10-01T16:40:00,2,28150869,188119
OK,62,40,877,62,2014-10-01T16:45:00,5,28151318,188119
OK,62,40,877,62,2014-10-01T16:55:00,0,28151767,188119
OK,62,40,877,62,2014-10-01T17:00:00,0,28152216,188119
OK,62,40,877,62,2014-10-01T17:05:00,0,28152662,188119
OK,62,40,877,62,2014-10-01T17:10:00,0,28153109,188119
OK,48,52,877,48,2014-10-01T17:20:00,2,28153558,188119
OK,49,51,877,49,2014-10-01T17:25:00,3,28154417,188119
OK,56,45,877,56,2014-10-01T17:30:00,1,28154859,188119
OK,50,50,877,50,2014-10-01T17:40:00,2,28155307,188119
OK,55,46,877,55,2014-10-01T17:45:00,3,28156174,188119
OK,58,43,877,58,2014-10-01T17:50:00,2,28156623,188119
OK,57,44,877,57,2014-10-01T17:55:00,1,28157061,188119
OK,57,44,877,57,2014-10-01T18:00:00,0,28157491,188119
OK,51,49,877,51,2014-10-01T18:05:00,1,28157939,188119
OK,51,49,877,51,2014-10-01T18:10:00,0,28158383,188119
OK,51,49,877,51,2014-10-01T18:15:00,0,28158829,188119
OK,51,49,877,51,2014-10-01T18:20:00,0,28159275,188119
OK,51,49,877,51,2014-10-01T18:25:00,0,28159610,188119
OK,52,48,877,52,2014-10-01T18:30:00,1,28160059,188119
OK,52,48,877,52,2014-10-01T18:35:00,1,28160508,188119
OK,52,48,877,52,2014-10-01T18:40:00,0,28160946,188119
OK,52,48,877,52,2014-10-01T18:45:00,0,28161395,188119
OK,60,42,877,60,2014-10-01T18:50:00,1,28161812,188119
OK,60,42,877,60,2014-10-01T19:00:00,0,28162261,188119
OK,60,42,877,60,2014-10-01T19:05:00,0,28163094,188119
OK,51,49,877,51,2014-10-01T19:10:00,1,28163542,188119
OK,51,49,877,51,2014-10-01T19:15:00,1,28163991,188119
OK,51,49,877,51,2014-10-01T19:20:00,0,28164422,188119
OK,59,42,877,59,2014-10-01T19:25:00,1,28164871,188119
OK,55,46,877,55,2014-10-01T19:30:00,2,28165296,188119
OK,53,47,877,53,2014-10-01T19:35:00,2,28165744,188119
OK,59,42,877,59,2014-10-01T19:40:00,2,28166185,188119
OK,63,40,877,63,2014-10-01T19:45:00,1,28166547,188119
OK,61,41,877,61,2014-10-01T19:50:00,1,28166996,188119
OK,61,41,877,61,2014-10-01T19:55:00,1,28167425,188119
OK,61,41,877,61,2014-10-01T20:00:00,0,28167859,188119
OK,51,49,877,51,2014-10-01T20:05:00,1,28168307,188119
OK,51,49,877,51,2014-10-01T20:10:00,1,28168752,188119
OK,51,49,877,51,2014-10-01T20:15:00,0,28169201,188119
OK,51,49,877,51,2014-10-01T20:20:00,0,28169649,188119
OK,46,55,877,46,2014-10-01T20:25:00,1,28170075,188119
OK,46,55,877,46,2014-10-01T20:30:00,1,28170520,188119
OK,52,48,877,52,2014-10-01T20:35:00,1,28170968,188119
OK,52,48,877,52,2014-10-01T20:40:00,1,28171405,188119
OK,52,48,877,52,2014-10-01T20:45:00,0,28171851,188119
OK,52,48,877,52,2014-10-01T20:50:00,0,28172299,188119
OK,52,48,877,52,2014-10-01T20:55:00,0,28172745,188119
OK,60,42,877,60,2014-10-01T21:00:00,1,28173191,188119
OK,60,42,877,60,2014-10-01T21:05:00,1,28173640,188119
OK,53,47,877,53,2014-10-01T21:10:00,1,28174081,188119
OK,52,48,877,52,2014-10-01T21:15:00,2,28174530,188119
OK,51,49,877,51,2014-10-01T21:20:00,0,28174956,188119
OK,51,49,877,51,2014-10-01T21:25:00,0,28175352,188119
OK,51,49,877,51,2014-10-01T21:30:00,0,28175801,188119
OK,51,49,877,51,2014-10-01T21:35:00,0,28176250,188119
OK,49,51,877,49,2014-10-01T21:45:00,1,28176699,188119
OK,49,51,877,49,2014-10-01T21:50:00,1,28177495,188119
OK,49,51,877,49,2014-10-01T21:55:00,0,28177941,188119
OK,49,51,877,49,2014-10-01T22:00:00,0,28178390,188119
OK,49,51,877,49,2014-10-01T22:05:00,0,28178837,188119
OK,49,51,877,49,2014-10-01T22:10:00,0,28179271,188119
OK,49,51,877,49,2014-10-01T22:15:00,0,28179714,188119
OK,49,51,877,49,2014-10-01T22:20:00,0,28180161,188119
OK,49,51,877,49,2014-10-01T22:25:00,0,28180559,188119
OK,49,51,877,49,2014-10-01T22:30:00,0,28181008,188119
OK,49,51,877,49,2014-10-01T22:35:00,0,28181432,188119
OK,49,51,877,49,2014-10-01T22:40:00,0,28181880,188119
OK,49,51,877,49,2014-10-01T22:45:00,0,28182327,188119
OK,49,51,877,49,2014-10-01T22:50:00,0,28182776,188119
OK,49,51,877,49,2014-10-01T22:55:00,0,28183193,188119
OK,49,51,877,49,2014-10-01T23:00:00,0,28183626,188119
OK,49,51,877,49,2014-10-01T23:05:00,0,28184071,188119
OK,49,51,877,49,2014-10-01T23:10:00,0,28184520,188119
OK,49,51,877,49,2014-10-01T23:15:00,0,28184955,188119
OK,49,51,877,49,2014-10-01T23:20:00,0,28185403,188119
OK,49,51,877,49,2014-10-01T23:25:00,0,28185834,188119
OK,49,51,877,49,2014-10-01T23:30:00,0,28186226,188119
OK,47,53,877,47,2014-10-01T23:40:00,0,28187073,188119
OK,47,53,877,47,2014-10-01T23:45:00,0,28187515,188119
OK,47,53,877,47,2014-10-01T23:50:00,0,28187964,188119
OK,47,53,877,47,2014-10-01T23:55:00,0,28188405,188119
OK,47,53,877,47,2014-10-02T00:00:00,0,28188841,188119
OK,47,53,877,47,2014-10-02T00:05:00,0,28189290,188119
OK,47,53,877,47,2014-10-02T00:10:00,0,28189712,188119
OK,47,53,877,47,2014-10-02T00:15:00,0,28190161,188119
OK,47,53,877,47,2014-10-02T00:20:00,0,28190514,188119
OK,47,53,877,47,2014-10-02T00:25:00,0,28190963,188119
OK,47,53,877,47,2014-10-02T00:30:00,0,28191412,188119
OK,47,53,877,47,2014-10-02T00:35:00,0,28191718,188119
OK,47,53,877,47,2014-10-02T00:40:00,0,28192167,188119
OK,47,53,877,47,2014-10-02T00:45:00,0,28192600,188119
OK,47,53,877,47,2014-10-02T00:50:00,0,28193044,188119
OK,47,53,877,47,2014-10-02T00:55:00,0,28193411,188119
OK,47,53,877,47,2014-10-02T01:00:00,0,28193860,188119
OK,47,53,877,47,2014-10-02T01:05:00,0,28194309,188119
OK,47,53,877,47,2014-10-02T01:15:00,0,28194758,188119
OK,47,53,877,47,2014-10-02T01:20:00,0,28195443,188119
OK,47,53,877,47,2014-10-02T01:30:00,0,28195892,188119
OK,47,53,877,47,2014-10-02T01:35:00,0,28196625,188119
OK,47,53,877,47,2014-10-02T01:40:00,0,28197048,188119
OK,47,53,877,47,2014-10-02T01:45:00,0,28197497,188119
OK,47,53,877,47,2014-10-02T01:50:00,0,28197945,188119
OK,47,53,877,47,2014-10-02T01:55:00,0,28198393,188119
OK,47,53,877,47,2014-10-02T02:05:00,0,28198842,188119
OK,47,53,877,47,2014-10-02T02:10:00,0,28199656,188119
OK,47,53,877,47,2014-10-02T02:15:00,0,28200098,188119
OK,47,53,877,47,2014-10-02T02:20:00,0,28200541,188119
OK,47,53,877,47,2014-10-02T02:25:00,0,28200990,188119
OK,47,53,877,47,2014-10-02T02:30:00,0,28201421,188119
OK,47,53,877,47,2014-10-02T02:45:00,0,28202319,188119
OK,47,53,877,47,2014-10-02T02:50:00,0,28202761,188119
OK,47,53,877,47,2014-10-02T02:55:00,0,28203209,188119
OK,47,53,877,47,2014-10-02T03:00:00,0,28203644,188119
OK,47,53,877,47,2014-10-02T03:10:00,0,28204093,188119
OK,47,53,877,47,2014-10-02T03:25:00,0,28204542,188119
OK,47,53,877,47,2014-10-02T03:30:00,0,28204991,188119
OK,51,49,877,51,2014-10-02T03:35:00,1,28205419,188119
OK,51,49,877,51,2014-10-02T03:40:00,1,28205866,188119
OK,51,49,877,51,2014-10-02T03:45:00,0,28206249,188119
OK,51,49,877,51,2014-10-02T03:55:00,0,28207147,188119
OK,54,46,877,54,2014-10-02T04:00:00,1,28207567,188119
OK,54,46,877,54,2014-10-02T04:05:00,1,28208015,188119
OK,42,60,877,42,2014-10-02T04:10:00,1,28208442,188119
OK,42,60,877,42,2014-10-02T04:15:00,0,28208891,188119
OK,42,60,877,42,2014-10-02T04:20:00,0,28209329,188119
OK,42,60,877,42,2014-10-02T04:25:00,0,28209778,188119
OK,50,50,877,50,2014-10-02T04:30:00,1,28210201,188119
OK,50,50,877,50,2014-10-02T04:35:00,1,28210650,188119
OK,59,42,877,59,2014-10-02T04:40:00,2,28211075,188119
OK,50,50,877,50,2014-10-02T04:45:00,0,28211519,188119
OK,50,50,877,50,2014-10-02T04:50:00,0,28211897,188119
OK,62,40,877,62,2014-10-02T04:55:00,0,28212346,188119
OK,62,40,877,62,2014-10-02T05:00:00,0,28212775,188119
OK,55,46,877,55,2014-10-02T05:05:00,1,28213224,188119
OK,55,46,877,55,2014-10-02T05:10:00,0,28213662,188119
OK,52,48,877,52,2014-10-02T05:20:00,0,28214111,188119
OK,62,40,877,62,2014-10-02T05:25:00,2,28214973,188119
OK,65,38,877,65,2014-10-02T05:30:00,0,28215389,188119
OK,132,19,877,132,2014-10-02T05:40:00,1,28215838,188119
OK,132,19,877,132,2014-10-02T05:45:00,1,28216617,188119
OK,132,19,877,132,2014-10-02T05:50:00,0,28217064,188119
OK,89,28,877,89,2014-10-02T05:55:00,6,28217513,188119
OK,94,26,877,94,2014-10-02T06:00:00,2,28217952,188119
OK,94,26,877,94,2014-10-02T06:05:00,0,28218401,188119
OK,94,26,877,94,2014-10-02T06:10:00,0,28218821,188119
OK,155,16,877,155,2014-10-02T06:15:00,2,28219270,188119
OK,71,35,877,71,2014-10-02T06:20:00,1,28219643,188119
OK,71,35,877,71,2014-10-02T06:25:00,1,28220092,188119
OK,71,35,877,71,2014-10-02T06:30:00,0,28220526,188119
OK,67,37,877,67,2014-10-02T06:40:00,3,28220975,188119
OK,62,40,877,62,2014-10-02T06:45:00,4,28221642,188119
OK,58,43,877,58,2014-10-02T07:00:00,2,28222236,188119
OK,53,47,877,53,2014-10-02T07:05:00,3,28222685,188119
OK,51,49,877,51,2014-10-02T07:10:00,2,28223116,188119
OK,58,43,877,58,2014-10-02T07:15:00,0,28223552,188119
OK,58,43,877,58,2014-10-02T07:20:00,0,28223999,188119
OK,58,43,877,58,2014-10-02T07:25:00,0,28224354,188119
OK,58,43,877,58,2014-10-02T07:30:00,0,28224803,188119
OK,59,42,877,59,2014-10-02T07:40:00,1,28225252,188119
OK,54,46,877,54,2014-10-02T07:50:00,4,28226464,188119
OK,56,45,877,56,2014-10-02T08:00:00,0,28226913,188119
OK,52,48,877,52,2014-10-02T08:05:00,1,28227777,188119
OK,52,48,877,52,2014-10-02T08:10:00,1,28228136,188119
OK,52,48,877,52,2014-10-02T08:20:00,0,28228585,188119
OK,52,48,877,52,2014-10-02T08:25:00,0,28229444,188119
OK,52,48,877,52,2014-10-02T08:30:00,0,28229794,188119
OK,51,49,877,51,2014-10-02T08:40:00,0,28230243,188119
OK,51,49,877,51,2014-10-02T08:45:00,0,28231058,188119
OK,49,51,877,49,2014-10-02T08:50:00,2,28231481,188119
OK,51,49,877,51,2014-10-02T08:55:00,0,28231930,188119
OK,61,41,877,61,2014-10-02T09:00:00,1,28232272,188119
OK,61,41,877,61,2014-10-02T09:10:00,0,28232721,188119
OK,61,41,877,61,2014-10-02T09:15:00,0,28233170,188119
OK,61,41,877,61,2014-10-02T09:20:00,0,28233594,188119
OK,61,41,877,61,2014-10-02T09:25:00,0,28234043,188119
OK,61,41,877,61,2014-10-02T09:30:00,0,28234376,188119
OK,83,30,877,83,2014-10-02T09:35:00,5,28234825,188119
OK,54,46,877,54,2014-10-02T09:40:00,2,28235252,188119
OK,55,46,877,55,2014-10-02T09:45:00,6,28235701,188119
OK,55,46,877,55,2014-10-02T09:50:00,1,28236144,188119
OK,52,48,877,52,2014-10-02T09:55:00,2,28236591,188119
OK,54,46,877,54,2014-10-02T10:00:00,0,28236994,188119
OK,54,46,877,54,2014-10-02T10:05:00,0,28237442,188119
OK,55,46,877,55,2014-10-02T10:10:00,5,28237890,188119
OK,55,46,877,55,2014-10-02T10:15:00,5,28238337,188119
OK,58,43,877,58,2014-10-02T10:20:00,5,28238778,188119
OK,76,33,877,76,2014-10-02T10:25:00,2,28239227,188119
OK,50,50,877,50,2014-10-02T10:30:00,0,28239657,188119
OK,56,45,877,56,2014-10-02T10:35:00,3,28240106,188119
OK,63,40,877,63,2014-10-02T10:40:00,0,28240550,188119
OK,50,50,877,50,2014-10-02T10:50:00,2,28240999,188119
OK,40,63,877,40,2014-10-02T10:55:00,1,28241879,188119
OK,40,63,877,40,2014-10-02T11:00:00,0,28242275,188119
OK,40,63,877,40,2014-10-02T11:05:00,0,28242724,188119
OK,82,30,877,82,2014-10-02T11:15:00,1,28243173,188119
OK,68,37,877,68,2014-10-02T11:20:00,2,28243936,188119
OK,54,46,877,54,2014-10-02T11:25:00,0,28244365,188119
OK,54,46,877,54,2014-10-02T11:30:00,0,28244814,188119
OK,90,28,877,90,2014-10-02T11:35:00,1,28245263,188119
OK,90,28,877,90,2014-10-02T11:40:00,1,28245669,188119
OK,90,28,877,90,2014-10-02T11:45:00,0,28246118,188119
OK,57,44,877,57,2014-10-02T11:50:00,5,28246555,188119
OK,58,43,877,58,2014-10-02T11:55:00,2,28247004,188119
OK,55,46,877,55,2014-10-02T12:00:00,2,28247450,188119
OK,46,55,877,46,2014-10-02T12:05:00,1,28247880,188119
OK,46,55,877,46,2014-10-02T12:10:00,0,28248329,188119
OK,56,45,877,56,2014-10-02T12:15:00,3,28248776,188119
OK,65,38,877,65,2014-10-02T12:20:00,2,28249204,188119
OK,111,22,877,111,2014-10-02T12:25:00,1,28249648,188119
OK,111,22,877,111,2014-10-02T12:30:00,3,28250067,188119
OK,78,32,877,78,2014-10-02T12:35:00,2,28250465,188119
OK,82,30,877,82,2014-10-02T12:45:00,0,28251245,188119
OK,175,14,877,175,2014-10-02T13:20:00,2,28251790,188119
OK,71,35,877,71,2014-10-02T13:30:00,1,28252374,188119
OK,71,35,877,71,2014-10-02T13:35:00,0,28252816,188119
OK,71,35,877,71,2014-10-02T13:40:00,0,28253233,188119
OK,281,9,877,281,2014-10-02T13:45:00,4,28253682,188119
OK,182,13,877,182,2014-10-02T13:50:00,1,28254087,188119
OK,258,9,877,258,2014-10-02T13:55:00,7,28254408,188119
OK,160,15,877,160,2014-10-02T14:10:00,2,28254985,188119
OK,152,16,877,152,2014-10-02T14:15:00,2,28255434,188119
OK,169,14,877,169,2014-10-02T14:20:00,0,28255862,188119
OK,169,14,877,169,2014-10-02T14:25:00,0,28256311,188119
OK,169,14,877,169,2014-10-02T14:30:00,0,28256739,188119
OK,140,18,877,140,2014-10-02T14:35:00,4,28257188,188119
OK,102,24,877,102,2014-10-02T14:40:00,3,28257629,188119
OK,86,29,877,86,2014-10-02T14:45:00,2,28258077,188119
OK,132,19,877,132,2014-10-02T14:50:00,3,28258510,188119
OK,131,19,877,131,2014-10-02T14:55:00,4,28258956,188119
OK,92,27,877,92,2014-10-02T15:00:00,4,28259405,188119
OK,91,27,877,91,2014-10-02T15:05:00,3,28259852,188119
OK,74,34,877,74,2014-10-02T15:10:00,1,28260285,188119
OK,74,34,877,74,2014-10-02T15:15:00,0,28260734,188119
OK,74,34,877,74,2014-10-02T15:20:00,0,28261174,188119
OK,100,25,877,100,2014-10-02T15:25:00,2,28261556,188119
OK,100,25,877,100,2014-10-02T15:30:00,2,28261986,188119
OK,76,33,877,76,2014-10-02T15:35:00,1,28262433,188119
OK,76,33,877,76,2014-10-02T15:40:00,0,28262879,188119
OK,65,38,877,65,2014-10-02T15:45:00,4,28263317,188119
OK,62,40,877,62,2014-10-02T15:50:00,1,28263758,188119
OK,62,40,877,62,2014-10-02T15:55:00,0,28264160,188119
OK,62,40,877,62,2014-10-02T16:00:00,0,28264609,188119
OK,60,42,877,60,2014-10-02T16:05:00,1,28265047,188119
OK,60,42,877,60,2014-10-02T16:10:00,3,28265487,188119
OK,73,34,877,73,2014-10-02T16:15:00,0,28265883,188119
OK,54,46,877,54,2014-10-02T16:20:00,1,28266332,188119
OK,59,42,877,59,2014-10-02T16:25:00,1,28266781,188119
OK,59,42,877,59,2014-10-02T16:30:00,1,28267104,188119
OK,59,42,877,59,2014-10-02T16:35:00,0,28267553,188119
OK,59,42,877,59,2014-10-02T16:40:00,0,28268002,188119
OK,59,42,877,59,2014-10-02T16:45:00,0,28268444,188119
OK,59,42,877,59,2014-10-02T16:50:00,0,28268893,188119
OK,68,37,877,68,2014-10-02T16:55:00,1,28269342,188119
OK,81,31,877,81,2014-10-02T17:00:00,4,28269777,188119
OK,86,29,877,86,2014-10-02T17:05:00,3,28270226,188119
OK,77,32,877,77,2014-10-02T17:10:00,0,28270660,188119
OK,77,32,877,77,2014-10-02T17:15:00,0,28271109,188119
OK,63,40,877,63,2014-10-02T17:20:00,4,28271539,188119
OK,59,42,877,59,2014-10-02T17:25:00,1,28271987,188119
OK,59,42,877,59,2014-10-02T17:30:00,0,28272423,188119
OK,59,42,877,59,2014-10-02T17:35:00,0,28272864,188119
OK,59,42,877,59,2014-10-02T17:40:00,0,28273312,188119
OK,87,29,877,87,2014-10-02T17:45:00,0,28273758,188119
OK,57,44,877,57,2014-10-02T17:55:00,0,28274207,188119
OK,57,44,877,57,2014-10-02T18:00:00,0,28274981,188119
OK,36,70,877,36,2014-10-02T18:05:00,0,28275420,188119
OK,36,70,877,36,2014-10-02T18:10:00,0,28275865,188119
OK,36,70,877,36,2014-10-02T18:15:00,0,28276311,188119
OK,51,49,877,51,2014-10-02T18:20:00,1,28276707,188119
OK,51,49,877,51,2014-10-02T18:30:00,0,28277156,188119
OK,51,49,877,51,2014-10-02T18:40:00,0,28277605,188119
OK,71,35,877,71,2014-10-02T18:45:00,1,28278402,188119
OK,51,49,877,51,2014-10-02T19:00:00,0,28278851,188119
OK,51,49,877,51,2014-10-02T19:05:00,0,28279300,188119
OK,51,49,877,51,2014-10-02T19:10:00,0,28279745,188119
OK,51,49,877,51,2014-10-02T19:15:00,0,28280186,188119